SL-16 DEB, 22537

Orbit data source: Space-Track

SL-16 DEB, 22537 is space debris in LEO originally from a launch on Fri, 25 Dec 1992 UTC launched from the Tyuratam Missile And Space Complex (TTMTR). Debris objects in space refer to the collection of defunct objects orbiting the Earth. Examples of debris include non-operational satellites, rocket bodies, and fragments generated from explosions, collisions, or faulty payload assembly.

Loading next visibility...
Identifier
22537, 1992-093GX
Orbit
LEO
Country
Flag of CISCIS
Related business
Manufacturer
Unknown
Mission
Spacecraft
Bus & Motor
Unknown
Mass
Unknown
Launch date (UTC)
1992-12-25 (33 years ago)
Launch vehicle
Unknown
Launch site
Tyuratam Missile And Space Complex (TTMTR)
Object type
Payload
Rocket body
Debris
Shape & HBR
Unknown shape, 0.1 m
Radar Cross Section
Small (<0.1 m²)

Expand to show TLE details & history
Last TLE update: 1 day ago

TLE from 1 day ago
0 SL-16 DEB
1 22537U 92093GX  25296.42423951  .00002998  00000-0  15263-2 0  9993
2 22537  71.1700  81.2371 0096595  59.2166 301.8422 14.14165340670969
Epoch: 2025-10-23T10:10Z
TLE epoch observation values (Epoch: 2025-10-23T10:10:54.293Z)
Latitude
-0.00009°
Longitude
-103.57284°
Altitude
811.237 km
Speed
7.467 km/s
True Right ascension
05h 24m 56s
True Declination
0° 00' 00"
Sunlit
Object was in full shadow at epoch
Visualization orbit readout
Latitude
Unknown
Longitude
Unknown
Altitude
Unknown
Speed
Unknown
Apparent Right ascension
Unknown
Apparent Declination
Unknown
Sunlit
N/A
Visualization observer readout
Local Sidereal Time
12:58:35
Azimuth
Unknown
Elevation
Unknown
Doppler factor
Unknown
Orbital elements
Apogee altitude
912.815 km
Perigee altitude
773.309 km
Semi-major axis
7,221.199 km
Eccentricity
0.00966
Inclination
71.17°
RAAN
81.2371°
Arg. of periapsis
59.2166°
True anomaly
300.8959°
Mean anomaly
301.8422°
Eccentric anomaly
301.36965°
Mean motion
3.53695 °/min
Orbital period
101.78 mins
BSTAR
0.0015263
Loading maneuver chart data...
Computing Atmospheric mass density...

Documentation

Showing up to 5 results
|